K4AVM-13 Weather Reports


time (UTC)temp
C
wind
direction
speed
KPH
gust
KPH
rain 1hr
cm
rain 24hr
cm
rain mn
cm
humidity
%
barometer
mb
20260831231027 29 240 0.0 1.6 0.00 0.00 0.00 70 1019.3
20260831230522 29 252 0.0 0.0 0.00 0.00 0.00 69 1019.1
20260831230017 30 248 0.0 0.0 0.00 0.00 0.00 68 1019.2
20260831225513 30 255 0.0 1.6 0.00 0.00 0.00 68 1019.1
20260831225012 30 248 0.0 1.6 0.00 0.00 0.00 67 1019.2
20260831224507 30 309 0.0 0.0 0.00 0.00 0.00 67 1019.0
20260831224002 30 287 0.0 1.6 0.00 0.00 0.00 66 1019.1
20260831223458 30 264 0.0 1.6 0.00 0.00 0.00 66 1019.1
20260831222954 31 266 1.6 4.8 0.00 0.00 0.00 65 1019.1
20260831222450 31 311 0.0 3.2 0.00 0.00 0.00 64 1019.3
20260831221949 31 250 1.6 1.6 0.00 0.00 0.00 63 1019.4
20260831221445 31 285 3.2 4.8 0.00 0.00 0.00 62 1019.3
20260831220940 31 337 0.0 3.2 0.00 0.00 0.00 61 1019.1
20260831220436 32 208 0.0 3.2 0.00 0.00 0.00 60 1019.0
20260831215931 32 203 0.0 1.6 0.00 0.00 0.00 59 1019.1
20260831215426 32 13 6.4 6.4 0.00 0.00 0.00 57 1019.1
20260831214923 32 294 1.6 4.8 0.00 0.00 0.00 58 1019.0
20260831214420 32 209 0.0 1.6 0.00 0.00 0.00 58 1019.1
20260831213915 32 322 0.0 0.0 0.00 0.00 0.00 57 1019.1
20260831213412 33 240 0.0 1.6 0.00 0.00 0.00 54 1019.0
20260831212912 33 184 0.0 0.0 0.00 0.00 0.00 53 1018.9
20260831212408 33 356 3.2 6.4 0.00 0.00 0.00 52 1019.2
20260831211907 33 305 1.6 1.6 0.00 0.00 0.00 54 1019.0
20260831211402 33 45 1.6 4.8 0.00 0.00 0.00 54 1019.1
20260831210856 34 237 1.6 3.2 0.00 0.00 0.00 52 1019.0
20260831210352 34 353 1.6 3.2 0.00 0.00 0.00 53 1019.0
20260831205847 34 245 0.0 1.6 0.00 0.00 0.00 51 1019.1
20260831205343 33 240 0.0 3.2 0.00 0.00 0.00 53 1019.0
20260831204838 33 220 1.6 1.6 0.00 0.00 0.00 52 1019.1
20260831204337 35 325 3.2 3.2 0.00 0.00 0.00 54 1019.0
20260831203836 33 229 0.0 0.0 0.00 0.00 0.00 54 1019.0
20260831203331 33 248 1.6 1.6 0.00 0.00 0.00 54 1019.2
20260831202829 33 331 8.0 9.7 0.00 0.00 0.00 56 1019.0
20260831202324 33 7 4.8 4.8 0.00 0.00 0.00 56 1019.0
20260831201818 33 229 0.0 1.6 0.00 0.00 0.00 57 1019.1
20260831201317 33 5 6.4 6.4 0.00 0.00 0.00 54 1019.1
20260831200813 33 247 0.0 3.2 0.00 0.00 0.00 57 1018.9
20260831200308 32 239 1.6 1.6 0.00 0.00 0.00 58 1018.9
20260831195803 32 11 3.2 4.8 0.00 0.00 0.00 58 1019.1
20260831195259 33 139 1.6 4.8 0.00 0.00 0.00 56 1019.0
20260831194754 35 222 0.0 3.2 0.00 0.00 0.00 53 1019.1
20260831194249 35 349 1.6 3.2 0.00 0.00 0.00 53 1019.3
20260831193743 33 233 0.0 1.6 0.00 0.00 0.00 54 1019.3
20260831193239 33 350 1.6 3.2 0.00 0.00 0.00 57 1019.2
20260831192733 33 336 1.6 3.2 0.00 0.00 0.00 54 1019.2
20260831192228 34 210 1.6 9.7 0.00 0.00 0.00 52 1019.2
20260831191725 34 220 0.0 1.6 0.00 0.00 0.00 53 1019.2
20260831191221 35 14 1.6 4.8 0.00 0.00 0.00 51 1019.4
20260831190716 35 228 1.6 3.2 0.00 0.00 0.00 53 1019.5
20260831190215 33 355 0.0 1.6 0.00 0.00 0.00 54 1019.6
20260831185710 34 235 0.0 1.6 0.00 0.00 0.00 53 1019.7
20260831185206 34 267 0.0 3.2 0.00 0.00 0.00 53 1019.7
20260831184704 34 233 0.0 1.6 0.00 0.00 0.00 56 1019.7
20260831184201 34 323 3.2 4.8 0.00 0.00 0.00 54 1019.7
20260831183659 34 249 4.8 4.8 0.00 0.00 0.00 54 1019.9
20260831183154 34 262 0.0 3.2 0.00 0.00 0.00 55 1019.9
20260831182653 33 5 1.6 4.8 0.00 0.00 0.00 59 1019.8
20260831182149 33 122 1.6 1.6 0.00 0.00 0.00 57 1019.8
20260831181643 33 344 3.2 4.8 0.00 0.00 0.00 57 1019.6
20260831181137 33 166 0.0 3.2 0.00 0.00 0.00 58 1019.9
20260831180633 34 246 0.0 0.0 0.00 0.00 0.00 56 1020.1
20260831180128 33 49 1.6 3.2 0.00 0.00 0.00 57 1020.0
20260831175622 33 210 1.6 1.6 0.00 0.00 0.00 59 1020.0
20260831175119 32 267 0.0 4.8 0.00 0.00 0.00 62 1020.2
20260831174614 33 243 0.0 3.2 0.00 0.00 0.00 62 1020.2
20260831174113 33 355 4.8 6.4 0.00 0.00 0.00 57 1020.1
20260831173612 33 229 1.6 1.6 0.00 0.00 0.00 60 1020.2
20260831173108 32 89 3.2 3.2 0.00 0.00 0.00 61 1020.1
20260831172603 32 240 1.6 6.4 0.00 0.00 0.00 64 1020.3
20260831172058 32 177 0.0 3.2 0.00 0.00 0.00 66 1020.3
20260831171553 32 258 1.6 4.8 0.00 0.00 0.00 61 1020.2
20260831171050 32 243 0.0 3.2 0.00 0.00 0.00 64 1020.2
20260831170546 32 350 4.8 6.4 0.00 0.00 0.00 62 1020.3
20260831170044 32 180 0.0 1.6 0.00 0.00 0.00 61 1020.3
20260831165543 32 241 0.0 0.0 0.00 0.00 0.00 62 1020.4
20260831165040 32 242 1.6 3.2 0.00 0.00 0.00 64 1020.5
20260831164536 32 340 1.6 4.8 0.00 0.00 0.00 62 1020.5
20260831164031 32 17 1.6 3.2 0.00 0.00 0.00 62 1020.5
20260831163526 32 282 1.6 4.8 0.00 0.00 0.00 61 1020.5
20260831163021 31 195 0.0 0.0 0.00 0.00 0.00 67 1020.6
20260831162515 32 265 1.6 3.2 0.00 0.00 0.00 65 1020.6
20260831162013 33 144 0.0 4.8 0.00 0.00 0.00 62 1020.7
20260831161509 32 250 1.6 3.2 0.00 0.00 0.00 63 1020.8
20260831161005 32 303 0.0 1.6 0.00 0.00 0.00 63 1020.8
20260831160505 32 283 0.0 3.2 0.00 0.00 0.00 65 1020.6
20260831160000 32 349 1.6 3.2 0.00 0.00 0.00 62 1020.6
20260831155454 32 215 0.0 3.2 0.00 0.00 0.00 64 1020.8
20260831154950 32 335 3.2 3.2 0.00 0.00 0.00 61 1020.7
20260831154446 32 149 1.6 1.6 0.00 0.00 0.00 65 1020.7
20260831153945 31 215 1.6 1.6 0.00 0.00 0.00 66 1020.7
20260831153440 32 91 1.6 1.6 0.00 0.00 0.00 65 1020.7
20260831152937 32 22 3.2 4.8 0.00 0.00 0.00 66 1020.9
20260831152432 31 80 0.0 0.0 0.00 0.00 0.00 68 1020.9
20260831151927 31 323 1.6 3.2 0.00 0.00 0.00 69 1020.8
20260831151426 30 181 0.0 4.8 0.00 0.00 0.00 71 1020.8
20260831150922 30 309 0.0 4.8 0.00 0.00 0.00 71 1020.8
20260831150417 30 251 0.0 1.6 0.00 0.00 0.00 70 1020.9
20260831145916 31 339 4.8 4.8 0.00 0.00 0.00 70 1021.1
20260831145413 30 32 0.0 4.8 0.00 0.00 0.00 71 1020.7
20260831144908 30 134 0.0 6.4 0.00 0.00 0.00 73 1020.9
20260831144404 30 67 0.0 1.6 0.00 0.00 0.00 72 1020.9
20260831143858 30 243 0.0 1.6 0.00 0.00 0.00 72 1021.0
20260831143348 29 2 3.2 6.4 0.00 0.00 0.00 73 1021.1
20260831142843 30 247 0.0 1.6 0.00 0.00 0.00 72 1021.1
20260831142338 30 296 1.6 3.2 0.00 0.00 0.00 74 1020.8
20260831141832 29 336 1.6 3.2 0.00 0.00 0.00 73 1020.8
20260831141327 29 218 1.6 3.2 0.00 0.00 0.00 74 1021.1
20260831140822 29 277 1.6 4.8 0.00 0.00 0.00 74 1020.9
20260831140316 29 305 1.6 3.2 0.00 0.00 0.00 75 1021.0
20260831135815 28 219 0.0 4.8 0.00 0.00 0.00 75 1021.1
20260831135310 28 324 0.0 1.6 0.00 0.00 0.00 77 1021.0
20260831134805 28 214 1.6 1.6 0.00 0.00 0.00 78 1021.1
20260831134302 28 336 3.2 6.4 0.00 0.00 0.00 78 1021.0
20260831133801 28 236 3.2 4.8 0.00 0.00 0.00 78 1021.2
20260831133301 27 226 0.0 3.2 0.00 0.00 0.00 78 1021.2
20260831132755 27 0 0.0 3.2 0.00 0.00 0.00 80 1020.9
20260831132250 27 294 0.0 4.8 0.00 0.00 0.00 80 1020.9
20260831131744 28 305 3.2 4.8 0.00 0.00 0.00 78 1021.0
20260831131242 27 97 0.0 1.6 0.00 0.00 0.00 79 1020.8
20260831130736 27 354 0.0 6.4 0.00 0.00 0.00 81 1020.9
20260831130231 27 228 1.6 1.6 0.00 0.00 0.00 79 1020.8
20260831125730 27 212 0.0 1.6 0.00 0.00 0.00 80 1020.8
20260831125226 27 279 0.0 4.8 0.00 0.00 0.00 82 1020.8
20260831124721 27 104 0.0 1.6 0.00 0.00 0.00 83 1020.8
20260831124217 26 343 0.0 1.6 0.00 0.00 0.00 83 1020.9
20260831123716 26 113 0.0 0.0 0.00 0.00 0.00 83 1020.9
20260831123215 26 113 0.0 1.6 0.00 0.00 0.00 84 1020.9
20260831122710 26 113 0.0 3.2 0.00 0.00 0.00 83 1021.0
20260831122206 26 117 0.0 0.0 0.00 0.00 0.00 84 1020.9
20260831121705 26 117 0.0 1.6 0.00 0.00 0.00 84 1020.8
20260831121202 25 147 0.0 1.6 0.00 0.00 0.00 86 1020.9
20260831120657 25 147 0.0 1.6 0.00 0.00 0.00 88 1020.9
20260831120151 23 216 0.0 0.0 0.00 0.00 0.00 92 1020.7
20260831115647 23 206 0.0 0.0 0.00 0.00 0.00 93 1020.8
20260831115143 23 184 0.0 1.6 0.00 0.00 0.00 94 1020.6
20260831114642 22 210 0.0 0.0 0.00 0.00 0.00 97 1020.6
20260831114137 22 209 0.0 0.0 0.00 0.00 0.00 97 1020.6
20260831113637 22 213 0.0 0.0 0.00 0.00 0.00 98 1020.4
20260831113132 22 226 0.0 0.0 0.00 0.00 0.00 98 1020.5
20260831112631 22 225 0.0 0.0 0.00 0.00 0.00 99 1020.4
20260831112126 22 235 0.0 0.0 0.00 0.00 0.00 99 1020.3
20260831111622 21 235 0.0 0.0 0.00 0.00 0.00 99 1020.5
20260831111118 21 311 0.0 0.0 0.00 0.00 0.00 99 1020.4
20260831110613 21 240 0.0 0.0 0.00 0.00 0.00 99 1020.3
20260831110109 21 240 0.0 0.0 0.00 0.00 0.00 99 1020.3
20260831105607 21 229 0.0 0.0 0.00 0.00 0.00 99 1020.3
20260831105102 21 232 0.0 0.0 0.00 0.00 0.00 99 1020.3
20260831104558 21 239 0.0 0.0 0.00 0.00 0.00 99 1020.4
20260831104054 21 240 0.0 0.0 0.00 0.00 0.00 99 1020.2
20260831103549 21 240 0.0 0.0 0.00 0.00 0.00 99 1020.3
20260831103045 21 241 0.0 0.0 0.00 0.00 0.00 99 1020.3
20260831102544 21 240 0.0 0.0 0.00 0.00 0.00 99 1020.2
20260831102040 21 243 0.0 0.0 0.00 0.00 0.00 99 1020.1
20260831101535 21 242 0.0 0.0 0.00 0.00 0.00 99 1020.1
20260831101031 21 240 0.0 0.0 0.00 0.00 0.00 98 1020.0
20260831100526 21 241 0.0 0.0 0.00 0.00 0.00 98 1019.9
20260831100023 21 230 0.0 0.0 0.00 0.00 0.00 98 1019.7
20260831095521 21 239 0.0 0.0 0.00 0.00 0.00 98 1019.9
20260831095016 21 243 0.0 0.0 0.00 0.00 0.00 98 1019.9
20260831094512 21 245 0.0 0.0 0.00 0.00 0.00 98 1019.9
20260831094008 21 239 0.0 0.0 0.00 0.00 0.00 98 1020.1
20260831093508 21 237 0.0 0.0 0.00 0.00 0.00 98 1019.9
20260831093004 21 239 0.0 0.0 0.00 0.00 0.00 98 1020.2
20260831092459 21 236 0.0 0.0 0.00 0.00 0.00 98 1020.2
20260831091954 22 239 0.0 0.0 0.00 0.00 0.00 98 1019.9
20260831091450 22 239 0.0 0.0 0.00 0.00 0.00 98 1020.0
20260831090944 22 242 0.0 0.0 0.00 0.00 0.00 97 1020.1
20260831090441 22 243 0.0 0.0 0.00 0.00 0.00 97 1020.2
20260831085937 22 231 0.0 0.0 0.00 0.00 0.00 97 1020.1
20260831085432 22 249 0.0 0.0 0.00 0.00 0.00 97 1020.0
20260831084931 22 250 0.0 0.0 0.00 0.00 0.00 96 1020.1
20260831084427 22 249 0.0 0.0 0.00 0.00 0.00 96 1020.2
20260831083924 22 251 0.0 0.0 0.00 0.00 0.00 96 1020.1
20260831083419 22 250 0.0 0.0 0.00 0.00 0.00 95 1020.0
20260831082918 22 247 0.0 0.0 0.00 0.00 0.00 95 1019.9
20260831082412 22 240 0.0 0.0 0.00 0.00 0.00 95 1019.9
20260831081908 22 225 0.0 0.0 0.00 0.00 0.00 94 1020.0
20260831081403 23 212 0.0 0.0 0.00 0.00 0.00 94 1019.9
20260831080859 23 211 0.0 0.0 0.00 0.00 0.00 93 1019.9
20260831080354 23 177 0.0 0.0 0.00 0.00 0.00 94 1020.0
20260831075849 23 167 0.0 0.0 0.00 0.00 0.00 94 1020.0
20260831075344 23 167 0.0 0.0 0.00 0.00 0.00 93 1020.0
20260831074839 23 172 0.0 0.0 0.00 0.00 0.00 93 1019.8
20260831074338 23 173 0.0 0.0 0.00 0.00 0.00 93 1019.9
20260831073834 23 171 0.0 0.0 0.00 0.00 0.00 93 1020.1
20260831073333 23 152 0.0 1.6 0.00 0.00 0.00 93 1020.1
20260831072828 23 153 0.0 0.0 0.00 0.00 0.00 93 1020.0
20260831072324 23 183 0.0 0.0 0.00 0.00 0.00 93 1020.0
20260831071820 23 185 0.0 0.0 0.00 0.00 0.00 93 1020.2
20260831071319 23 149 0.0 0.0 0.00 0.00 0.00 93 1020.2
20260831070814 23 150 0.0 1.6 0.00 0.00 0.00 93 1020.2
20260831070312 23 154 0.0 0.0 0.00 0.00 0.00 93 1020.1
20260831065812 23 155 0.0 0.0 0.00 0.00 0.00 94 1020.1
20260831065310 23 154 0.0 0.0 0.00 0.00 0.00 94 1020.0
20260831064806 22 154 0.0 0.0 0.00 0.00 0.00 95 1020.3
20260831064301 22 155 0.0 0.0 0.00 0.00 0.00 95 1020.3
20260831063757 22 154 0.0 0.0 0.00 0.00 0.00 95 1020.3
20260831063251 22 155 0.0 0.0 0.00 0.00 0.00 95 1020.3
20260831062746 22 186 0.0 0.0 0.00 0.00 0.00 95 1020.3
20260831062241 22 239 0.0 0.0 0.00 0.00 0.00 95 1020.2
20260831061739 22 248 0.0 0.0 0.00 0.00 0.00 95 1020.0
20260831061234 22 248 0.0 0.0 0.00 0.00 0.00 95 1020.2
20260831060730 22 204 0.0 0.0 0.00 0.00 0.00 94 1020.3
20260831060225 23 205 0.0 0.0 0.00 0.00 0.00 94 1020.3
20260831055725 23 210 0.0 0.0 0.00 0.00 0.00 94 1020.5
20260831055224 23 248 0.0 0.0 0.00 0.00 0.00 93 1020.4
20260831054719 23 248 0.0 0.0 0.00 0.00 0.00 93 1020.3
20260831054215 23 248 0.0 0.0 0.00 0.00 0.00 93 1020.4
20260831053713 23 200 0.0 0.0 0.00 0.00 0.00 92 1020.3
20260831053213 23 200 0.0 0.0 0.00 0.00 0.00 92 1020.4
20260831052712 23 224 0.0 0.0 0.00 0.00 0.00 92 1020.7
20260831052211 23 235 0.0 0.0 0.00 0.00 0.00 92 1020.5
20260831051709 23 235 0.0 0.0 0.00 0.00 0.00 92 1020.4
20260831051208 23 331 0.0 0.0 0.00 0.00 0.00 92 1020.7
20260831050703 23 239 0.0 0.0 0.00 0.00 0.00 92 1020.8
20260831050202 23 239 0.0 0.0 0.00 0.00 0.00 92 1020.6
20260831045657 23 220 0.0 0.0 0.00 0.00 0.00 92 1020.6
20260831045152 23 183 0.0 1.6 0.00 0.00 0.00 92 1020.6
20260831044647 23 111 0.0 0.0 0.00 0.00 0.00 93 1020.8
20260831044142 23 111 0.0 0.0 0.00 0.00 0.00 93 1020.8
20260831043638 23 110 0.0 0.0 0.00 0.00 0.00 93 1020.8
20260831043133 23 108 0.0 0.0 0.00 0.00 0.00 93 1020.7
20260831042632 23 108 0.0 0.0 0.00 0.00 0.00 94 1020.8
20260831042127 23 111 0.0 0.0 0.00 0.00 0.00 94 1020.8
20260831041621 23 108 0.0 0.0 0.00 0.00 0.00 94 1020.7
20260831041120 23 112 0.0 0.0 0.00 0.00 0.00 94 1020.8
20260831040616 23 112 0.0 0.0 0.00 0.00 0.00 95 1020.8
20260831040109 23 108 0.0 0.0 0.00 0.00 0.00 95 1020.8
20260831035607 23 108 0.0 0.0 0.00 0.00 0.00 95 1020.8
20260831035057 23 109 0.0 0.0 0.00 0.00 0.00 94 1020.9
20260831034556 23 111 0.0 0.0 0.00 0.00 0.00 94 1021.0
20260831034052 23 110 0.0 0.0 0.00 0.00 0.00 94 1021.0
20260831033547 23 112 0.0 0.0 0.00 0.00 0.00 93 1021.1
20260831033042 23 109 0.0 0.0 0.00 0.00 0.00 93 1021.1
20260831032542 23 112 0.0 0.0 0.00 0.00 0.00 93 1020.9
20260831032038 23 111 0.0 0.0 0.00 0.00 0.00 93 1021.1
20260831031536 24 112 0.0 0.0 0.00 0.00 0.00 92 1021.1
20260831031031 24 112 0.0 0.0 0.00 0.00 0.00 92 1021.0
20260831030530 24 112 0.0 0.0 0.00 0.00 0.00 92 1021.1
20260831030030 24 111 0.0 0.0 0.00 0.00 0.00 92 1021.0
20260831025527 24 112 0.0 0.0 0.00 0.00 0.00 92 1021.2
20260831025023 24 111 0.0 0.0 0.00 0.00 0.00 92 1021.1
20260831024513 24 111 0.0 0.0 0.00 0.00 0.00 92 1021.0
20260831024013 24 111 0.0 0.0 0.00 0.00 0.00 92 1021.1
20260831023510 24 112 0.0 0.0 0.00 0.00 0.00 92 1021.0
20260831023005 24 111 0.0 0.0 0.00 0.00 0.00 92 1020.8
20260831022504 24 112 0.0 0.0 0.00 0.00 0.00 91 1021.0
20260831022000 24 111 0.0 0.0 0.00 0.00 0.00 91 1021.2
20260831021458 25 112 0.0 0.0 0.00 0.00 0.00 90 1021.3
20260831020954 25 112 0.0 0.0 0.00 0.00 0.00 90 1021.0
20260831020449 25 112 0.0 0.0 0.00 0.00 0.00 90 1021.1
20260831015943 25 112 0.0 0.0 0.00 0.00 0.00 89 1021.1
20260831015439 25 112 0.0 0.0 0.00 0.00 0.00 89 1021.0
20260831014934 25 112 0.0 0.0 0.00 0.00 0.00 88 1021.2
20260831014429 25 111 0.0 1.6 0.00 0.00 0.00 89 1021.2
20260831013924 25 250 0.0 0.0 0.00 0.00 0.00 90 1021.0
20260831013420 25 239 0.0 0.0 0.00 0.00 0.00 90 1021.2
20260831012914 25 248 0.0 0.0 0.00 0.00 0.00 89 1021.2
20260831012409 25 249 0.0 0.0 0.00 0.00 0.00 88 1021.3
20260831011909 25 250 0.0 0.0 0.00 0.00 0.00 88 1021.3
20260831011404 25 250 0.0 0.0 0.00 0.00 0.00 87 1021.2
20260831010859 25 257 0.0 0.0 0.00 0.00 0.00 87 1021.2
20260831010354 25 250 0.0 0.0 0.00 0.00 0.00 86 1021.0
20260831005850 25 242 0.0 0.0 0.00 0.00 0.00 86 1021.0
20260831005345 25 248 0.0 0.0 0.00 0.00 0.00 86 1020.8
20260831004840 26 246 0.0 0.0 0.00 0.00 0.00 85 1020.9
20260831004336 26 247 0.0 0.0 0.00 0.00 0.00 85 1020.7
20260831003832 26 146 0.0 0.0 0.00 0.00 0.00 84 1020.7
20260831003328 26 254 0.0 0.0 0.00 0.00 0.00 84 1020.6
20260831002827 26 238 0.0 0.0 0.00 0.00 0.00 84 1020.4
20260831002320 26 238 0.0 0.0 0.00 0.00 0.00 83 1020.3
20260831001816 26 238 0.0 0.0 0.00 0.00 0.00 83 1020.4
20260831001311 26 238 0.0 0.0 0.00 0.00 0.00 83 1020.4
20260831000809 26 238 0.0 0.0 0.00 0.00 0.00 81 1020.4
20260831000310 26 254 0.0 0.0 0.00 0.00 0.00 80 1020.3
20260830235807 26 235 0.0 0.0 0.00 0.00 0.00 79 1020.6
20260830235305 27 235 0.0 0.0 0.00 0.00 0.00 79 1020.3
20260830234757 27 235 0.0 0.0 0.00 0.00 0.00 78 1020.4
20260830234253 27 211 0.0 0.0 0.00 0.00 0.00 77 1020.3
20260830233748 27 211 0.0 0.0 0.00 0.00 0.00 76 1020.3
20260830233243 27 233 0.0 0.0 0.00 0.00 0.00 76 1020.3
20260830232734 27 232 0.0 0.0 0.00 0.00 0.00 75 1020.4
20260830232229 28 231 0.0 0.0 0.00 0.00 0.00 74 1020.4
20260830231725 28 231 0.0 0.0 0.00 0.00 0.00 73 1020.4
20260830231225 28 231 0.0 0.0 0.00 0.00 0.00 72 1020.4